TimeAST,TemperatureF,Dew PointF,Humidity,Sea Level PressureIn,VisibilityMPH,Wind Direction,Wind SpeedMPH,Gust SpeedMPH,PrecipitationIn,Events,Conditions,WindDirDegrees,DateUTC
12:56 AM,81.0,73.9,79,29.84,10.0,Calm,Calm,-,N/A,,Partly Cloudy,0,2013-09-14 04:56:00
1:56 AM,80.1,73.0,79,29.83,10.0,Calm,Calm,-,N/A,,Partly Cloudy,0,2013-09-14 05:56:00
2:56 AM,80.1,73.9,81,29.82,10.0,Calm,Calm,-,N/A,,Partly Cloudy,0,2013-09-14 06:56:00
3:17 AM,78.8,73.4,83,29.83,1.8,NE,8.1,18.4,0.07,Rain,Heavy Rain,40,2013-09-14 07:17:00
3:33 AM,75.2,71.6,89,29.83,2.5,Variable,3.5,-,0.35,Rain,Heavy Rain,0,2013-09-14 07:33:00
3:41 AM,77.0,71.6,83,29.83,9.0,Calm,Calm,-,0.36,Rain,Light Rain,0,2013-09-14 07:41:00
3:56 AM,77.0,72.0,84,29.82,10.0,Calm,Calm,-,0.36,,Partly Cloudy,0,2013-09-14 07:56:00
4:56 AM,78.1,73.0,84,29.84,10.0,Calm,Calm,-,0.00,Rain,Light Rain,0,2013-09-14 08:56:00
5:56 AM,78.1,73.0,84,29.85,10.0,Calm,Calm,-,0.00,,Partly Cloudy,0,2013-09-14 09:56:00
6:56 AM,79.0,75.0,88,29.87,10.0,Calm,Calm,-,N/A,,Scattered Clouds,0,2013-09-14 10:56:00
7:56 AM,82.0,73.0,74,29.88,10.0,Calm,Calm,-,N/A,,Scattered Clouds,0,2013-09-14 11:56:00
8:56 AM,84.0,73.9,72,29.90,10.0,ENE,4.6,-,N/A,,Scattered Clouds,60,2013-09-14 12:56:00
9:56 AM,84.9,75.0,72,29.91,10.0,ENE,5.8,-,N/A,,Scattered Clouds,70,2013-09-14 13:56:00
10:56 AM,84.0,73.9,72,29.91,10.0,South,8.1,-,N/A,,Mostly Cloudy,190,2013-09-14 14:56:00
11:44 AM,80.6,73.4,79,29.91,1.5,South,11.5,18.4,0.00,Rain,Light Rain,190,2013-09-14 15:44:00
11:56 AM,78.1,73.9,87,29.90,9.0,WSW,9.2,-,0.45,Rain,Heavy Rain,250,2013-09-14 15:56:00
12:39 PM,78.8,75.2,89,29.90,1.0,East,3.5,-,0.20,Rain,Heavy Rain,80,2013-09-14 16:39:00
12:42 PM,78.8,75.2,89,29.91,0.5,Calm,Calm,-,0.30,Fog-Rain,Heavy Rain,0,2013-09-14 16:42:00
12:56 PM,78.1,73.9,87,29.91,0.5,SE,8.1,-,0.76,Fog-Rain-Thunderstorm,Heavy Thunderstorms and Rain,140,2013-09-14 16:56:00
1:25 PM,77.0,73.4,89,29.90,0.8,ENE,3.5,-,1.15,Rain-Thunderstorm,Heavy Thunderstorms and Rain,70,2013-09-14 17:25:00
1:29 PM,77.0,73.4,89,29.90,3.0,ENE,9.2,-,1.22,Rain,Heavy Rain,70,2013-09-14 17:29:00
1:56 PM,80.1,75.0,85,29.89,10.0,ENE,9.2,-,1.31,Rain,Light Rain,70,2013-09-14 17:56:00
2:56 PM,84.9,75.9,74,29.86,10.0,ENE,12.7,-,0.00,,Mostly Cloudy,70,2013-09-14 18:56:00
3:56 PM,86.0,77.0,74,29.87,10.0,ENE,13.8,-,N/A,,Scattered Clouds,70,2013-09-14 19:56:00
4:56 PM,84.0,75.0,74,29.88,10.0,East,10.4,-,N/A,,Scattered Clouds,90,2013-09-14 20:56:00
5:56 PM,82.0,75.9,82,29.89,10.0,East,6.9,-,N/A,,Scattered Clouds,80,2013-09-14 21:56:00
6:56 PM,82.0,75.9,82,29.91,10.0,East,4.6,-,N/A,,Scattered Clouds,90,2013-09-14 22:56:00
7:56 PM,82.0,75.9,82,29.93,10.0,Calm,Calm,-,N/A,,Scattered Clouds,0,2013-09-14 23:56:00
8:56 PM,81.0,75.0,82,29.94,10.0,East,4.6,-,N/A,,Scattered Clouds,100,2013-09-15 00:56:00
9:56 PM,81.0,75.0,82,29.97,10.0,East,4.6,-,N/A,,Partly Cloudy,90,2013-09-15 01:56:00
10:56 PM,81.0,75.0,82,29.96,10.0,Calm,Calm,-,N/A,,Partly Cloudy,0,2013-09-15 02:56:00
11:56 PM,81.0,73.9,79,29.95,10.0,Calm,Calm,-,N/A,,Partly Cloudy,0,2013-09-15 03:56:00